Location: Hamayl? Da??
(36.7028°N, 30.1716°E)
Time: 17:15:36
(UTC+00:00)

CZ-2C R/B - Pass Details

Date: 04 August 2024
Orbit: 782 x 869 km, 98.3° (Epoch: 12 September)

Event Time Altitude Azimuth Distance (km) Brightness Sun altitude
Exits shadow 23:02:22 26° 75° (ENE) 1,645 4.4 -34.7°
Maximum altitude 23:02:50 26° 67° (ENE) 1,633 4.4 -34.7°
Drops below altitude 10° 23:07:19 10° 13° (NNE) 2,490 5.9 -34.4°
Sets 23:10:02 0° 1° (N) 3,418 6.8 -34.3°
